| time (UTC) | temp F | wind direction | speed MPH | gust MPH | rain 1hr in | rain 24hr in | rain mn in | humidity % | barometer mb |
| 20260505021423 | 59 | 256 | 0.0 | 0.0 | 0.00 | 0.00 | 0.00 | 76 | 1010.2 |
| 20260505020422 | 59 | 256 | 0.0 | 0.0 | 0.00 | 0.00 | 0.00 | 75 | 1009.8 |
| 20260505015422 | 60 | 256 | 0.0 | 0.0 | 0.00 | 0.00 | 0.00 | 75 | 1009.8 |
| 20260505014421 | 60 | 256 | 0.0 | 0.0 | 0.00 | 0.00 | 0.00 | 74 | 1009.8 |
| 20260505013420 | 60 | 256 | 0.0 | 0.0 | 0.00 | 0.00 | 0.00 | 73 | 1009.8 |
| 20260505012419 | 61 | 256 | 0.0 | 0.0 | 0.00 | 0.00 | 0.00 | 73 | 1009.8 |
| 20260505011418 | 61 | 256 | 0.0 | 0.0 | 0.00 | 0.00 | 0.00 | 72 | 1009.5 |
| 20260505010410 | 61 | 256 | 0.0 | 0.0 | 0.00 | 0.00 | 0.00 | 74 | 1009.5 |
| 20260505005409 | 62 | 256 | 0.0 | 0.0 | 0.00 | 0.00 | 0.00 | 72 | 1009.5 |
| 20260505004409 | 62 | 256 | 0.0 | 0.0 | 0.00 | 0.00 | 0.00 | 70 | 1009.5 |
| 20260505003408 | 63 | 256 | 0.0 | 0.0 | 0.00 | 0.00 | 0.00 | 69 | 1009.5 |
| 20260505002407 | 64 | 256 | 0.0 | 0.0 | 0.00 | 0.00 | 0.00 | 63 | 1009.5 |
| 20260505001407 | 64 | 256 | 0.0 | 0.0 | 0.00 | 0.00 | 0.00 | 61 | 1009.1 |
| 20260505000407 | 65 | 256 | 0.0 | 0.0 | 0.00 | 0.00 | 0.00 | 59 | 1009.5 |
| 20260504235406 | 65 | 256 | 0.0 | 0.0 | 0.00 | 0.00 | 0.00 | 58 | 1009.1 |
| 20260504234405 | 66 | 256 | 0.0 | 0.0 | 0.00 | 0.00 | 0.00 | 56 | 1009.1 |
| 20260504233404 | 67 | 256 | 0.0 | 0.0 | 0.00 | 0.00 | 0.00 | 54 | 1009.1 |
| 20260504232404 | 68 | 256 | 0.0 | 0.0 | 0.00 | 0.00 | 0.00 | 53 | 1009.1 |
| 20260504231403 | 68 | 256 | 0.0 | 0.0 | 0.00 | 0.00 | 0.00 | 51 | 1009.1 |
| 20260504230402 | 69 | 256 | 0.0 | 1.0 | 0.00 | 0.00 | 0.00 | 50 | 1009.1 |
| 20260504225401 | 70 | 226 | 1.0 | 4.0 | 0.00 | 0.00 | 0.00 | 46 | 1009.1 |
| 20260504224400 | 70 | 107 | 1.0 | 1.0 | 0.00 | 0.00 | 0.00 | 46 | 1009.1 |
| 20260504223400 | 71 | 143 | 0.0 | 1.0 | 0.00 | 0.00 | 0.00 | 45 | 1009.1 |
| 20260504222359 | 71 | 85 | 1.0 | 4.0 | 0.00 | 0.00 | 0.00 | 45 | 1009.1 |
| 20260504221358 | 71 | 109 | 1.0 | 2.0 | 0.00 | 0.00 | 0.00 | 44 | 1009.1 |
| 20260504220358 | 72 | 103 | 1.0 | 3.0 | 0.00 | 0.00 | 0.00 | 43 | 1009.1 |
| 20260504215357 | 73 | 111 | 1.0 | 4.0 | 0.00 | 0.00 | 0.00 | 42 | 1009.1 |
| 20260504214356 | 74 | 341 | 2.0 | 4.0 | 0.00 | 0.00 | 0.00 | 41 | 1009.1 |
| 20260504213355 | 75 | 273 | 1.0 | 4.0 | 0.00 | 0.00 | 0.00 | 40 | 1008.8 |
| 20260504212355 | 75 | 344 | 3.0 | 4.0 | 0.00 | 0.00 | 0.00 | 38 | 1009.1 |
| 20260504211355 | 75 | 103 | 1.0 | 2.0 | 0.00 | 0.00 | 0.00 | 36 | 1009.1 |
| 20260504210354 | 75 | 277 | 0.0 | 2.0 | 0.00 | 0.00 | 0.00 | 37 | 1008.8 |
| 20260504205353 | 75 | 82 | 0.0 | 3.0 | 0.00 | 0.00 | 0.00 | 36 | 1009.1 |
| 20260504204352 | 75 | 246 | 0.0 | 4.0 | 0.00 | 0.00 | 0.00 | 38 | 1009.1 |
| 20260504203249 | 75 | 104 | 1.0 | 4.0 | 0.00 | 0.00 | 0.00 | 36 | 1009.1 |
| 20260504202218 | 75 | 280 | 0.0 | 3.0 | 0.00 | 0.00 | 0.00 | 37 | 1009.5 |
| 20260504201217 | 74 | 231 | 1.0 | 3.0 | 0.00 | 0.00 | 0.00 | 37 | 1009.5 |
| 20260504200217 | 74 | 103 | 0.0 | 2.0 | 0.00 | 0.00 | 0.00 | 38 | 1009.5 |
| 20260504195216 | 74 | 102 | 0.0 | 2.0 | 0.00 | 0.00 | 0.00 | 38 | 1009.8 |
| 20260504194215 | 74 | 112 | 1.0 | 2.0 | 0.00 | 0.00 | 0.00 | 37 | 1009.8 |
| 20260504193214 | 74 | 278 | 0.0 | 3.0 | 0.00 | 0.00 | 0.00 | 37 | 1010.2 |
| 20260504192111 | 74 | 303 | 2.0 | 2.0 | 0.00 | 0.00 | 0.00 | 38 | 1010.2 |
| 20260504191110 | 74 | 319 | 1.0 | 3.0 | 0.00 | 0.00 | 0.00 | 39 | 1010.5 |
| 20260504190109 | 74 | 218 | 1.0 | 4.0 | 0.00 | 0.00 | 0.00 | 38 | 1010.5 |
| 20260504185109 | 74 | 108 | 2.0 | 4.0 | 0.00 | 0.00 | 0.00 | 39 | 1010.8 |
| 20260504184108 | 73 | 280 | 1.0 | 2.0 | 0.00 | 0.00 | 0.00 | 38 | 1010.8 |
| 20260504183005 | 73 | 271 | 0.0 | 2.0 | 0.00 | 0.00 | 0.00 | 39 | 1010.8 |
| 20260504181933 | 73 | 96 | 1.0 | 2.0 | 0.00 | 0.00 | 0.00 | 37 | 1011.2 |
| 20260504180932 | 73 | 117 | 1.0 | 2.0 | 0.00 | 0.00 | 0.00 | 38 | 1011.2 |
| 20260504175931 | 72 | 105 | 2.0 | 3.0 | 0.00 | 0.00 | 0.00 | 36 | 1011.5 |
| 20260504174931 | 72 | 131 | 2.0 | 3.0 | 0.00 | 0.00 | 0.00 | 38 | 1011.5 |
| 20260504173930 | 72 | 286 | 1.0 | 3.0 | 0.00 | 0.00 | 0.00 | 38 | 1011.5 |
| 20260504172929 | 72 | 273 | 1.0 | 4.0 | 0.00 | 0.00 | 0.00 | 37 | 1011.9 |
| 20260504171929 | 72 | 107 | 1.0 | 2.0 | 0.00 | 0.00 | 0.00 | 38 | 1011.9 |
| 20260504170928 | 71 | 99 | 1.0 | 1.0 | 0.00 | 0.00 | 0.00 | 38 | 1012.2 |
| 20260504150920 | 66 | 288 | 1.0 | 2.0 | 0.00 | 0.00 | 0.00 | 42 | 1013.2 |
| 20260504140813 | 61 | 273 | 0.0 | 1.0 | 0.00 | 0.00 | 0.00 | 53 | 1013.5 |
| 20260504130738 | 56 | 278 | 0.0 | 1.0 | 0.00 | 0.00 | 0.00 | 63 | 1013.9 |
| 20260504110628 | 48 | 266 | 0.0 | 0.0 | 0.00 | 0.00 | 0.00 | 84 | 1014.6 |
| 20260504081616 | 47 | 267 | 0.0 | 0.0 | 0.00 | 0.00 | 0.00 | 85 | 1014.9 |
| 20260504080616 | 46 | 267 | 0.0 | 0.0 | 0.00 | 0.00 | 0.00 | 85 | 1014.9 |
| 20260504050328 | 43 | 266 | 0.0 | 0.0 | 0.00 | 0.00 | 0.00 | 84 | 1014.9 |
| 20260504045327 | 43 | 267 | 0.0 | 0.0 | 0.00 | 0.00 | 0.00 | 84 | 1015.2 |
| 20260504044326 | 43 | 267 | 0.0 | 0.0 | 0.00 | 0.00 | 0.00 | 84 | 1015.2 |
| 20260504043326 | 43 | 267 | 0.0 | 0.0 | 0.00 | 0.00 | 0.00 | 84 | 1015.2 |
| 20260504042325 | 43 | 267 | 0.0 | 0.0 | 0.00 | 0.00 | 0.00 | 84 | 1015.2 |
| 20260504041324 | 43 | 267 | 0.0 | 0.0 | 0.00 | 0.00 | 0.00 | 83 | 1015.2 |
| 20260504040252 | 43 | 267 | 0.0 | 0.0 | 0.00 | 0.00 | 0.00 | 83 | 1015.2 |
| 20260504035252 | 43 | 267 | 0.0 | 0.0 | 0.00 | 0.00 | 0.00 | 82 | 1015.2 |
| 20260504034149 | 43 | 267 | 0.0 | 0.0 | 0.00 | 0.00 | 0.00 | 82 | 1014.9 |
| 20260504033148 | 43 | 266 | 0.0 | 0.0 | 0.00 | 0.00 | 0.00 | 81 | 1014.9 |
| 20260504032147 | 44 | 267 | 0.0 | 0.0 | 0.00 | 0.00 | 0.00 | 80 | 1014.9 |
| 20260504031044 | 44 | 267 | 0.0 | 0.0 | 0.00 | 0.00 | 0.00 | 79 | 1014.6 |
| 20260504030044 | 44 | 267 | 0.0 | 0.0 | 0.00 | 0.00 | 0.00 | 78 | 1014.6 |
| 20260504025012 | 44 | 267 | 0.0 | 0.0 | 0.00 | 0.00 | 0.00 | 77 | 1014.6 |
| 20260504023940 | 45 | 267 | 0.0 | 0.0 | 0.00 | 0.00 | 0.00 | 76 | 1014.6 |
| 20260504022939 | 45 | 266 | 0.0 | 0.0 | 0.00 | 0.00 | 0.00 | 75 | 1014.6 |